Find Yamal-402

NORAD ID: 39022 Int'l Des: 2012-070 Owner: GAZS Country: RU operational
HEOCIRCULARGSO

リアルタイム位置

3D地球を読み込み中...

Yamal-402について

説明を読み込み中...

次回通過

Passes for default location (London). Set your location on the main map for personalized predictions.

高度履歴

Loading altitude history...

軌道要素

1 39022U 12070A 26106.95049450 .00000093 00000-0 00000-0 0 9999
2 39022 1.1065 84.8679 0003837 297.7213 219.5831 1.00272480 48785
Epoch: Apr 16, 2026 • Age: 13 hours

現在のステータス

高度 35776.3 km
速度 3.08 km/s
衛星直下点 -0.17°S, 54.93°E
打ち上げ日 Dec 8, 2012
運用期間 13.3 years
タイプ other

技術仕様

分類 Payload
質量 4463.00 kg
乾燥質量 2000.00 kg
総質量 4463.00 kg
長さ 5.50 m
直径 2.50 m
スパン 38.00 m
形状 Box + 2 pan
製造者 THALES
バスタイプ Spacebus 4000C3
フェーズステータス In Orbit
所有者/国 GAZS/RU

Most Searched